Location: Lynch Observatory
(39.9540°N, 75.1861°W)
Time: 09:57:30
(UTC-04:00)

UWE-3 - Pass Details

Date: 24 April 2024
Orbit: 569 x 652 km, 97.8° (Epoch: 25 May)

Event Time Altitude Azimuth Distance (km) Brightness Sun altitude
Rises 02:22:00 0° 34° (NE) 2,872 ? -33.6°
Reaches altitude 10° 02:25:11 10° 60° (ENE) 1,981 ? -33.3°
Enters shadow 02:26:37 13° 79° (E) 1,776 ? -33.2°
